Location: Unspecified
(50.0830°N, 0.0000°E)
Time: 23:58:14
(UTC+00:00)

N. Korean satellite - Pass Details

Date: 22 November 2019
Orbit: 456 x 506 km, 97.2° (Epoch: 06 December)

Event Time Altitude Azimuth Distance (km) Brightness Sun altitude
Rises 04:50:12 0° 29° (NNE) 2,615 10.6 -24.1°
Reaches altitude 10° 04:53:07 10° 54° (NE) 1,717 10.0 -23.6°
Maximum altitude 04:55:13 15° 89° (E) 1,444 9.9 -23.3°
Drops below altitude 10° 04:57:18 10° 124° (SE) 1,695 10.1 -23.0°
Sets 05:00:08 0° 149° (SSE) 2,560 10.7 -22.5°
